Pagosa Springs, CO

11:01 AM MST on December 02, 2016 (GMT -0700)
Pagosa Springs

Weather History for KPSO - September, 2013

Change the Weather History Date:

Thursday, September 19, 2013

  Actual Average (KDRO) Record (KDRO)
Temperature  
Mean Temperature 58 °F 58 °F  
Max Temperature 70 °F 74 °F 85 °F (1984)
Min Temperature 47 °F 41 °F 20 °F (1971)
Degree Days  
Heating Degree Days 6 7  
Month to date heating degree days 86  
Since 1 July heating degree days 115  
Cooling Degree Days 0 0  
Month to date cooling degree days 3  
Year to date cooling degree days 240  
Growing Degree Days 8 (Base 50)    
Moisture  
Dew Point 45 °F    
Average Humidity 68    
Maximum Humidity 97    
Minimum Humidity 28    
Precipitation  
Precipitation 0.00 in 0.08 in 1.06 in (2004)
Month to date precipitation 1.27  
Year to date precipitation 11.24  
Sea Level Pressure  
Sea Level Pressure 30.20 in    
Wind  
Wind Speed 2 mph (SW)    
Max Wind Speed 12 mph    
Max Gust Speed 18 mph    
Visibility 10 miles    
Events Thunderstorm    
T = Trace of Precipitation, MM = Missing Value Source: NWS Daily Summary

Daily Weather History Graph

Daily Weather History Graph

Search for Another Location

Airport or City:

Trip Planner

Search our weather history database for the weather conditions in past years. The results will help you decide how hot, cold, wet, or windy it might be!

Date:

Astronomy

Sep. 19, 2013 Rise Set
Actual Time 6:53 AM MDT 7:09 PM MDT
Civil Twilight 6:27 AM MDT 7:35 PM MDT
Nautical Twilight 5:57 AM MDT 8:05 PM MDT
Astronomical Twilight 5:26 AM MDT 8:36 PM MDT
Moon 7:11 PM MDT (9/19) 7:05 AM MDT (9/19)
Length of Visible Light 13h 07m
Length of Day
12h 15m
Full, 100% of the Moon is Illuminated
Sep 19
Full
Sep 26
Last Quarter
Oct 4
New
Oct 11
First Quarter
Oct 18
Full

Hourly Weather History & Observations

Time (MDT) Temp. Dew Point Humidity Pressure Visibility Wind Dir Wind Speed Gust Speed Precip Events Conditions
12:15 AM 50.4 °F 49.3 °F 96% 30.19 in 10.0 mi NNW 3.5 mph - N/A Thunderstorm Scattered Clouds
12:35 AM 52.0 °F 48.2 °F 87% 30.19 in 10.0 mi Calm Calm - N/A Thunderstorm Overcast
12:55 AM 52.3 °F 49.8 °F 91% 30.17 in 10.0 mi Calm Calm - N/A Thunderstorm Thunderstorm
1:15 AM 52.2 °F 50.0 °F 92% 30.17 in 10.0 mi East 5.8 mph - N/A Thunderstorm Overcast
1:35 AM 51.8 °F 49.8 °F 93% 30.19 in 10.0 mi Calm Calm - N/A Thunderstorm Thunderstorm
1:55 AM 51.3 °F 49.6 °F 94% 30.18 in 10.0 mi Calm Calm - N/A Thunderstorm Thunderstorm
2:15 AM 51.4 °F 48.0 °F 88% 30.18 in 10.0 mi Calm Calm - N/A   Overcast
2:35 AM 50.9 °F 46.6 °F 85% 30.17 in 10.0 mi NNW 3.5 mph - N/A   Mostly Cloudy
2:55 AM 50.4 °F 45.7 °F 84% 30.17 in 10.0 mi Calm Calm - N/A   Scattered Clouds
3:15 AM 50.4 °F 46.2 °F 86% 30.17 in 10.0 mi Calm Calm - N/A   Scattered Clouds
3:35 AM 48.7 °F 46.6 °F 92% 30.17 in 10.0 mi Calm Calm - N/A   Scattered Clouds
3:55 AM 49.5 °F 46.6 °F 90% 30.17 in 10.0 mi Calm Calm - N/A   Clear
4:15 AM 48.9 °F 45.7 °F 89% 30.17 in 10.0 mi Calm Calm - N/A   Scattered Clouds
4:35 AM 49.1 °F 46.6 °F 91% 30.17 in 10.0 mi Calm Calm - N/A   Mostly Cloudy
4:55 AM 48.4 °F 46.9 °F 95% 30.17 in 10.0 mi Calm Calm - N/A   Overcast
5:15 AM 49.3 °F 47.3 °F 93% 30.17 in 10.0 mi Calm Calm - N/A   Mostly Cloudy
5:35 AM 49.1 °F 46.4 °F 90% 30.17 in 10.0 mi Calm Calm - N/A   Mostly Cloudy
5:55 AM 48.2 °F 46.6 °F 94% 30.17 in 10.0 mi Calm Calm - N/A   Scattered Clouds
6:15 AM 48.2 °F 47.1 °F 96% 30.19 in 10.0 mi Calm Calm - N/A   Mostly Cloudy
6:35 AM 49.5 °F 46.9 °F 91% 30.19 in 10.0 mi Calm Calm - N/A   Mostly Cloudy
6:55 AM 48.4 °F 46.9 °F 95% 30.19 in 10.0 mi Calm Calm - N/A   Scattered Clouds
7:15 AM 47.3 °F 46.4 °F 97% 30.20 in 10.0 mi Calm Calm - N/A   Scattered Clouds
7:35 AM 48.0 °F 47.1 °F 97% 30.20 in 10.0 mi Calm Calm - N/A   Clear
7:55 AM 50.0 °F 48.2 °F 94% 30.21 in 10.0 mi Calm Calm - N/A   Clear
8:15 AM 51.8 °F 47.7 °F 86% 30.21 in 10.0 mi Calm Calm - N/A   Clear
8:35 AM 53.2 °F 47.3 °F 80% 30.21 in 10.0 mi Calm Calm - N/A   Clear
8:55 AM 55.0 °F 48.7 °F 79% 30.21 in 10.0 mi Calm Calm - N/A   Clear
9:15 AM 56.5 °F 49.6 °F 78% 30.22 in 10.0 mi Calm Calm - N/A   Clear
9:35 AM 57.7 °F 49.3 °F 73% 30.22 in 10.0 mi Calm Calm - N/A   Scattered Clouds
9:55 AM 59.0 °F 48.6 °F 68% 30.22 in 10.0 mi Calm Calm - N/A   Scattered Clouds
10:15 AM 59.0 °F 49.1 °F 70% 30.23 in 10.0 mi SSE 3.5 mph - N/A   Scattered Clouds
10:35 AM 60.3 °F 49.1 °F 67% 30.23 in 10.0 mi Calm Calm - N/A   Scattered Clouds
10:55 AM 61.7 °F 50.0 °F 65% 30.23 in 10.0 mi South 5.8 mph - N/A   Mostly Cloudy
11:15 AM 61.9 °F 49.6 °F 64% 30.23 in 10.0 mi SW 4.6 mph - N/A   Scattered Clouds
11:35 AM 61.9 °F 50.5 °F 66% 30.24 in 10.0 mi WSW 5.8 mph - N/A   Scattered Clouds
11:55 AM 63.3 °F 49.5 °F 61% 30.23 in 10.0 mi SW 3.5 mph - N/A   Scattered Clouds
12:15 PM 64.2 °F 49.1 °F 58% 30.23 in 10.0 mi South 6.9 mph - N/A   Scattered Clouds
12:35 PM 65.5 °F 46.8 °F 51% 30.23 in 10.0 mi South 8.1 mph - N/A   Clear
12:55 PM 65.3 °F 47.1 °F 52% 30.22 in 10.0 mi SSW 9.2 mph - N/A   Clear
1:15 PM 66.2 °F 45.9 °F 48% 30.21 in 10.0 mi South 8.1 mph - N/A   Clear
1:35 PM 67.8 °F 42.8 °F 40% 30.21 in 10.0 mi South 11.5 mph - N/A   Scattered Clouds
1:55 PM 68.0 °F 34.5 °F 29% 30.20 in 10.0 mi SW 5.8 mph - N/A   Scattered Clouds
2:15 PM 68.7 °F 37.6 °F 32% 30.20 in 10.0 mi SSW 11.5 mph - N/A   Clear
2:35 PM 69.3 °F 39.2 °F 33% 30.20 in 10.0 mi SSE 5.8 mph - N/A   Clear
2:55 PM 69.3 °F 38.8 °F 33% 30.19 in 10.0 mi SW 8.1 mph - N/A   Scattered Clouds
3:15 PM 70.0 °F 37.8 °F 31% 30.19 in 10.0 mi SSW 10.4 mph - N/A   Mostly Cloudy
3:35 PM 70.3 °F 39.0 °F 32% 30.19 in 10.0 mi WSW 10.4 mph - N/A Thunderstorm Mostly Cloudy
3:55 PM 69.8 °F 36.7 °F 30% 30.19 in 10.0 mi WSW 9.2 mph - N/A   Mostly Cloudy
4:15 PM 70.0 °F 35.1 °F 28% 30.19 in 10.0 mi SSW 8.1 mph - N/A   Scattered Clouds
4:35 PM 69.6 °F 37.8 °F 31% 30.19 in 10.0 mi WSW 9.2 mph - N/A Thunderstorm Thunderstorm
4:55 PM 69.6 °F 38.5 °F 32% 30.19 in 10.0 mi West 6.9 mph 18.4 mph N/A   Scattered Clouds
5:15 PM 69.4 °F 38.3 °F 32% 30.18 in 10.0 mi SW 8.1 mph - N/A   Clear
5:35 PM 69.6 °F 37.6 °F 31% 30.18 in 10.0 mi SW 6.9 mph - N/A   Clear
5:55 PM 69.4 °F 37.6 °F 31% 30.18 in 10.0 mi SSW 5.8 mph - N/A   Clear
6:15 PM 68.5 °F 36.5 °F 31% 30.18 in 10.0 mi WSW 4.6 mph - N/A   Clear
6:35 PM 68.4 °F 37.4 °F 32% 30.18 in 10.0 mi Calm Calm - N/A   Clear
6:55 PM 65.5 °F 42.3 °F 43% 30.18 in 10.0 mi Calm Calm - N/A   Clear
7:15 PM 59.9 °F 47.3 °F 63% 30.19 in 10.0 mi Calm Calm - N/A   Clear
7:35 PM 58.3 °F 47.1 °F 66% 30.19 in 10.0 mi Calm Calm - N/A   Clear
7:55 PM 57.0 °F 45.1 °F 64% 30.20 in 10.0 mi Calm Calm - N/A   Clear
8:15 PM 55.8 °F 46.2 °F 70% 30.20 in 10.0 mi Calm Calm - N/A   Clear
8:35 PM 55.2 °F 46.2 °F 72% 30.21 in 10.0 mi NE 3.5 mph - N/A   Clear
8:55 PM 55.4 °F 45.5 °F 69% 30.22 in 10.0 mi Calm Calm - N/A   Clear
9:15 PM 54.0 °F 45.5 °F 73% 30.23 in 10.0 mi NNE 4.6 mph - N/A   Clear
9:35 PM 53.6 °F 44.8 °F 72% 30.23 in 10.0 mi Calm Calm - N/A   Clear
9:55 PM 53.1 °F 44.8 °F 73% 30.24 in 10.0 mi Calm Calm - N/A   Clear
10:15 PM 52.5 °F 44.4 °F 74% 30.24 in 10.0 mi Calm Calm - N/A   Clear
10:35 PM 50.4 °F 44.8 °F 81% 30.24 in 10.0 mi Calm Calm - N/A   Clear
10:55 PM 50.7 °F 45.7 °F 83% 30.25 in 10.0 mi Calm Calm - N/A   Clear
11:15 PM 49.5 °F 44.2 °F 82% 30.25 in 10.0 mi Calm Calm - N/A   Clear
11:35 PM 49.1 °F 43.9 °F 82% 30.25 in 10.0 mi Calm Calm - N/A   Clear
11:55 PM 48.4 °F 43.5 °F 83% 30.25 in 10.0 mi Calm Calm - N/A   Clear